TDRS 3

Last updated on Sun Apr 12 2026 00:02:44 GMT+0000 (Coordinated Universal Time)

1 19548U 88091B 26101.09558796 -.00000294 00000+0 00000+0 0 9996 2 19548 12.6535 341.4412 0041588 356.6226 206.5061 1.00265045124714
UTC large
Height (km)
Speed (km/s)
/
Latitude / Longitude
Inclination (degrees)
Orbital Period (minutes)
Azimuth
Elevation
Range (km)
Doppler Factor

Next 0 passes for location: London (51.5072 / 0.1276)

Sorry there are no passes over London.
TDRS 3